Tracking 28514 objects as of 23-Feb-2024
HD Live streaming from Space Station
objects crossing your sky now

STARLINK-5006

Track STARLINK-5006 now!
10-day predictions
STARLINK-5006 is classified as:


NORAD ID: 55422
Int'l Code: 2023-014AH
Perigee: 577.1 km
Apogee: 581.2 km
Inclination: 70.0 °
Period: 96.1 minutes
Semi major axis: 6950 km
RCS: Unknown
Launch date: January 31, 2023
Source: United States (US)
Launch site: AIR FORCE WESTERN TEST RANGE (AFWTR)
Your satellite tracking list
Your tracking list is empty




NASA's NSSDC Master Catalog

Two Line Element Set (TLE):
1 55422U 23014AH  24054.50125999 -.00000010  00000-0  69246-5 0  9997
2 55422  70.0010 163.2003 0002935 266.9358  93.1465 14.98333958 59006
Source of the keplerian elements: AFSPC